Litchfield, MN

4:20 AM CDT on May 30, 2017 (GMT -0500)
Litchfield Municipal

Weather History for KLJF - May, 2013

Change the Weather History Date:

Friday, May 24, 2013

  Actual Average Record
Temperature  
Mean Temperature 54 °F -  
Max Temperature 68 °F 71 °F 87 °F (1950)
Min Temperature 39 °F 50 °F 33 °F (1949)
Degree Days  
Heating Degree Days 12    
Growing Degree Days 4 (Base 50)    
Moisture  
Dew Point 41 °F    
Average Humidity 61    
Maximum Humidity 94    
Minimum Humidity 35    
Precipitation  
Precipitation 0.00 in - - ()
Sea Level Pressure  
Sea Level Pressure 30.29 in    
Wind  
Wind Speed 8 mph (SE)    
Max Wind Speed 18 mph    
Max Gust Speed 25 mph    
Visibility 10 miles    
Events Rain , Thunderstorm    
Averages and records for this station are not official NWS values.
T = Trace of Precipitation, MM = Missing Value Source: NWS Daily Summary

Daily Weather History Graph

Daily Weather History Graph

Search for Another Location

Airport or City:

Trip Planner

Search our weather history database for the weather conditions in past years. The results will help you decide how hot, cold, wet, or windy it might be!

Date:

Astronomy

May. 24, 2013 Rise Set
Actual Time 5:39 AM CDT 8:50 PM CDT
Civil Twilight 5:04 AM CDT 9:26 PM CDT
Nautical Twilight 4:18 AM CDT 10:12 PM CDT
Astronomical Twilight 3:22 AM CDT 11:09 PM CDT
Moon 8:32 PM CDT (5/24) 5:14 AM CDT (5/24)
Length of Visible Light 16h 22m
Length of Day
15h 11m
Full, 100% of the Moon is Illuminated
May 24
Full
May 24
Full
May 31
Last Quarter
Jun 8
New
Jun 16
First Quarter

Hourly Weather History & Observations

Time (CDT) Temp. Windchill Dew Point Humidity Pressure Visibility Wind Dir Wind Speed Gust Speed Precip Events Conditions
12:12 AM 48.2 °F - 35.6 °F 62% 30.34 in 10.0 mi SE 5.8 mph - N/A   Clear
12:33 AM 46.4 °F 42.4 °F 35.6 °F 66% 30.34 in 10.0 mi ESE 8.1 mph - N/A   Clear
12:53 AM 46.4 °F 42.9 °F 35.6 °F 66% 30.34 in 10.0 mi ESE 6.9 mph - N/A   Clear
1:12 AM 48.2 °F - 33.8 °F 58% 30.34 in 10.0 mi SE 5.8 mph - N/A   Clear
1:33 AM 50.0 °F - 32.0 °F 50% 30.34 in 10.0 mi SE 6.9 mph - N/A   Clear
1:53 AM 50.0 °F - 32.0 °F 50% 30.35 in 10.0 mi SE 4.6 mph - N/A   Clear
2:12 AM 48.2 °F - 32.0 °F 54% 30.35 in 10.0 mi SE 4.6 mph - N/A   Clear
2:33 AM 46.4 °F 43.5 °F 32.0 °F 57% 30.35 in 10.0 mi SE 5.8 mph - N/A   Clear
2:53 AM 42.8 °F 39.3 °F 33.8 °F 70% 30.35 in 10.0 mi SE 5.8 mph - N/A   Clear
3:12 AM 44.6 °F 41.4 °F 33.8 °F 66% 30.34 in 10.0 mi SE 5.8 mph - N/A   Clear
3:33 AM 44.6 °F 42.2 °F 32.0 °F 61% 30.34 in 10.0 mi SE 4.6 mph - N/A   Clear
3:53 AM 42.8 °F 40.1 °F 32.0 °F 66% 30.34 in 10.0 mi SE 4.6 mph - N/A   Clear
4:12 AM 42.8 °F 41.1 °F 33.8 °F 70% 30.35 in 10.0 mi SE 3.5 mph - N/A   Clear
4:33 AM 41.0 °F 39.0 °F 33.8 °F 76% 30.35 in 10.0 mi SE 3.5 mph - N/A   Clear
4:53 AM 42.8 °F 41.1 °F 32.0 °F 66% 30.35 in 10.0 mi SE 3.5 mph - N/A   Clear
5:12 AM 42.8 °F 39.3 °F 32.0 °F 66% 30.36 in 10.0 mi SSE 5.8 mph - N/A   Clear
5:33 AM 44.6 °F 42.2 °F 32.0 °F 61% 30.36 in 10.0 mi SE 4.6 mph - N/A   Clear
5:52 AM 44.6 °F 40.7 °F 32.0 °F 61% 30.36 in 10.0 mi SE 6.9 mph - N/A   Clear
6:13 AM 39.2 °F 33.6 °F 35.6 °F 87% 30.36 in 10.0 mi ESE 8.1 mph - N/A   Clear
6:33 AM 42.8 °F 38.6 °F 37.4 °F 81% 30.35 in 10.0 mi ESE 6.9 mph - N/A   Clear
6:53 AM 46.4 °F 42.9 °F 37.4 °F 71% 30.36 in 10.0 mi SE 6.9 mph - N/A   Clear
7:13 AM 48.2 °F - 37.4 °F 66% 30.36 in 10.0 mi SE 8.1 mph - N/A   Clear
7:32 AM 50.0 °F - 37.4 °F 62% 30.36 in 10.0 mi SE 11.5 mph - N/A   Clear
7:53 AM 51.8 °F - 35.6 °F 54% 30.36 in 10.0 mi SE 6.9 mph - N/A   Clear
8:12 AM 51.8 °F - 35.6 °F 54% 30.36 in 10.0 mi SE 10.4 mph - N/A   Clear
8:33 AM 53.6 °F - 37.4 °F 54% 30.35 in 10.0 mi SE 12.7 mph - N/A   Clear
8:53 AM 53.6 °F - 37.4 °F 54% 30.35 in 10.0 mi SE 11.5 mph - N/A   Clear
9:12 AM 53.6 °F - 35.6 °F 51% 30.35 in 10.0 mi SE 10.4 mph - N/A   Clear
9:33 AM 55.4 °F - 37.4 °F 51% 30.35 in 10.0 mi SE 10.4 mph - N/A   Clear
9:53 AM 57.2 °F - 37.4 °F 48% 30.35 in 10.0 mi SE 10.4 mph 16.1 mph N/A   Clear
10:12 AM 57.2 °F - 37.4 °F 48% 30.34 in 10.0 mi SE 11.5 mph 17.3 mph N/A   Clear
10:33 AM 59.0 °F - 37.4 °F 45% 30.34 in 10.0 mi SSE 11.5 mph - N/A   Clear
10:53 AM 60.8 °F - 39.2 °F 45% 30.34 in 10.0 mi SE 10.4 mph - N/A   Clear
11:12 AM 60.8 °F - 37.4 °F 42% 30.34 in 10.0 mi SSE 8.1 mph 16.1 mph N/A   Clear
11:33 AM 60.8 °F - 39.2 °F 45% 30.33 in 10.0 mi SSE 9.2 mph 19.6 mph N/A   Clear
11:53 AM 62.6 °F - 39.2 °F 42% 30.32 in 10.0 mi SE 12.7 mph - N/A   Clear
12:12 PM 62.6 °F - 41.0 °F 45% 30.31 in 10.0 mi SE 13.8 mph 20.7 mph N/A   Clear
12:33 PM 62.6 °F - 41.0 °F 45% 30.31 in 10.0 mi SE 13.8 mph 23.0 mph N/A   Clear
12:53 PM 64.4 °F - 41.0 °F 42% 30.29 in 10.0 mi ESE 16.1 mph 21.9 mph N/A   Clear
1:12 PM 64.4 °F - 39.2 °F 40% 30.28 in 10.0 mi SE 12.7 mph 17.3 mph N/A   Clear
1:33 PM 64.4 °F - 39.2 °F 40% 30.27 in 10.0 mi SSE 9.2 mph 17.3 mph N/A   Clear
1:53 PM 64.4 °F - 39.2 °F 40% 30.26 in 10.0 mi SE 9.2 mph 25.3 mph N/A   Clear
2:12 PM 66.2 °F - 39.2 °F 37% 30.25 in 10.0 mi SE 17.3 mph 21.9 mph N/A   Clear
2:33 PM 68.0 °F - 39.2 °F 35% 30.24 in 10.0 mi SE 17.3 mph - N/A   Clear
2:53 PM 66.2 °F - 37.4 °F 35% 30.24 in 10.0 mi SE 10.4 mph 23.0 mph N/A   Scattered Clouds
3:12 PM 66.2 °F - 39.2 °F 37% 30.24 in 10.0 mi SE 12.7 mph 18.4 mph N/A   Scattered Clouds
3:33 PM 66.2 °F - 37.4 °F 35% 30.24 in 10.0 mi SE 12.7 mph 18.4 mph N/A   Scattered Clouds
3:53 PM 66.2 °F - 37.4 °F 35% 30.22 in 10.0 mi SE 12.7 mph - N/A   Mostly Cloudy
4:13 PM 64.4 °F - 39.2 °F 40% 30.23 in 10.0 mi SE 9.2 mph - N/A   Mostly Cloudy
4:33 PM 64.4 °F - 37.4 °F 37% 30.26 in 10.0 mi SE 6.9 mph - N/A   Overcast
4:53 PM 64.4 °F - 39.2 °F 40% 30.27 in 10.0 mi SSE 4.6 mph - N/A   Mostly Cloudy
5:13 PM 64.4 °F - 39.2 °F 40% 30.27 in 10.0 mi SSE 4.6 mph - N/A Thunderstorm Scattered Clouds
5:33 PM 62.6 °F - 46.4 °F 55% 30.26 in 10.0 mi ESE 6.9 mph - N/A Rain Light Rain
5:53 PM 62.6 °F - 46.4 °F 55% 30.23 in 10.0 mi East 11.5 mph - N/A Rain Light Rain
6:13 PM 60.8 °F - 48.2 °F 63% 30.19 in 10.0 mi East 11.5 mph - N/A Rain , Thunderstorm Light Thunderstorms and Rain
6:33 PM 59.0 °F - 48.2 °F 67% 30.19 in 10.0 mi East 11.5 mph - N/A Rain Light Rain
6:53 PM 59.0 °F - 48.2 °F 67% 30.19 in 10.0 mi ESE 9.2 mph - N/A Thunderstorm Thunderstorm
7:13 PM 60.8 °F - 48.2 °F 63% 30.20 in 10.0 mi East 5.8 mph - N/A Thunderstorm Unknown
7:33 PM 57.2 °F - 51.8 °F 82% 30.22 in 10.0 mi ESE 5.8 mph - N/A Rain Light Rain
7:53 PM 57.2 °F - 51.8 °F 82% 30.20 in 10.0 mi East 9.2 mph - N/A Rain , Thunderstorm Light Thunderstorms and Rain
8:13 PM 57.2 °F - 53.6 °F 88% 30.19 in 10.0 mi ESE 10.4 mph - N/A Rain , Thunderstorm Light Thunderstorms and Rain
8:33 PM 57.2 °F - 53.6 °F 88% 30.18 in 7.0 mi East 15.0 mph - N/A Rain , Thunderstorm Light Thunderstorms and Rain
8:53 PM 57.2 °F - 53.6 °F 88% 30.17 in 7.0 mi ESE 18.4 mph - N/A Rain , Thunderstorm Light Thunderstorms and Rain
9:13 PM 55.4 °F - 53.6 °F 94% 30.18 in 10.0 mi ESE 16.1 mph 21.9 mph N/A Rain , Thunderstorm Light Thunderstorms and Rain
9:33 PM 57.2 °F - 53.6 °F 88% 30.20 in 10.0 mi ESE 12.7 mph 18.4 mph N/A Thunderstorm Overcast
9:53 PM 55.4 °F - 53.6 °F 94% 30.22 in 10.0 mi ESE 10.4 mph - N/A Rain Light Rain
10:13 PM 55.4 °F - 53.6 °F 94% 30.23 in 10.0 mi ESE 10.4 mph - N/A Rain Light Rain
10:33 PM 55.4 °F - 53.6 °F 94% 30.23 in 7.0 mi East 11.5 mph - N/A Rain Rain
10:53 PM 55.4 °F - 53.6 °F 94% 30.23 in 10.0 mi East 12.7 mph - N/A   Light Drizzle
11:13 PM 55.4 °F - 53.6 °F 94% 30.23 in 10.0 mi ESE 12.7 mph - N/A   Overcast
11:33 PM 55.4 °F - 53.6 °F 94% 30.22 in 10.0 mi ESE 13.8 mph 17.3 mph N/A   Overcast
11:53 PM 55.4 °F - 53.6 °F 94% 30.22 in 10.0 mi SE 11.5 mph - N/A   Overcast